Tracking 19485 objects as of 22-Jan-2019
HD Live streaming from Space Station
objects crossing your sky now

FLOCK 2K 44

Track FLOCK 2K 44 now!
10-day predictions
FLOCK 2K 44 is classified as:


NORAD ID: 42873
Int'l Code: 2017-042BA
Perigee: 450.3 km
Apogee: 467.2 km
Inclination: 97.0 °
Period: 93.6 minutes
Semi major axis: 6829 km
RCS: Unknown
Launch date: July 14, 2017
Source: United States (US)
Launch site: TYURATAM MISSILE AND SPACE COMPLEX (TTMTR)
aabbcc
Your satellite tracking list
Your tracking list is empty




NASA's NSSDC Master Catalog

Two Line Element Set (TLE):
1 42873U 17042BA  19020.91527329 +.00002708 +00000-0 +73982-4 0  9998
2 42873 096.9590 271.4093 0012384 037.7079 322.5033 15.38143089085093
Source of the keplerian elements: AFSPC